Location: Newark
(13.8117°N, 3.6025°W)
Time: 20:51:34
(UTC+00:00)

Vanguard 2 - Pass Details

Date: 26 August 2019
Orbit: 554 x 2937 km, 32.9° (Epoch: 15 September)

Event Time Altitude Azimuth Distance (km) Brightness Sun altitude
Rises 12:38:24 0° 303° (WNW) 3,085 10.7 83.6°
Reaches altitude 10° 12:41:39 10° 329° (NNW) 2,439 10.3 82.9°
Maximum altitude 12:44:51 15° 3° (N) 2,412 10.3 82.2°
Drops below altitude 10° 12:48:49 10° 35° (NE) 3,159 10.7 81.4°
Sets 12:54:09 0° 56° (ENE) 4,700 11.5 80.1°
